Regional Weather Roundup
Issued by NWS

Home | Current Version | Previous Version | Graphics & Text | Print | Product List | Glossary On
Versions: 1 2 3 4 5 6 7 8 9 10 11 12 13 14 15 16 17 18 19 20 21 22 23 24 25 26 27 28 29 30 31 32 33 34 35 36 37 38 39 40 41 42 43 44 45 46 47 48 49 50
000
ASUS44 KMEG 311410
RWRTN
TENNESSEE HOURLY STATE WEATHER ROUNDUP
NATIONAL WEATHER SERVICE MEMPHIS TN
900 AM CDT TUE MAY 31 2016

TNZ002-004-019-021-049-052-054-088>092-311500-
WEST TENNESSEE

CITY           SKY/WX    TMP DP  RH WIND       PRES   REMARKS
MEMPHIS INTL   CLOUDY    73  69  87 CALM      29.99R
NWS MEMPHIS      N/A     71 N/A N/A MISG        N/A
JACKSON        CLOUDY    73  67  81 W8        30.00R
DYERSBURG      CLOUDY    70  66  88 CALM      29.99S
UNION CITY     PTSUNNY   72  70  94 CALM      29.98R
PARIS          SUNNY     73  64  73 SE3       29.99S
LEXINGTON      SUNNY     75  66  73 CALM      29.98R
$$

TNZ008-025-027-028-033-062-065-066-311500-
NORTH MIDDLE TENNESSEE

CITY           SKY/WX    TMP DP  RH WIND       PRES   REMARKS
NASHVILLE      CLOUDY    74  62  66 CALM      30.00S
CLARKSVILLE    PTSUNNY   75  64  68 SE5       29.99R
SMYRNA         PTSUNNY   74  64  70 CALM      30.01S
COOKEVILLE     SUNNY     79  66  65 CALM      30.01S
CROSSVILLE     SUNNY     76  62  62 VRB3      30.06R
$$

TNZ061-075-076-078-094-096-097-311500-
SOUTH MIDDLE TENNESSEE

CITY           SKY/WX    TMP DP  RH WIND       PRES   REMARKS
FAYETTEVILLE   SUNNY     73  64  73 NE5       30.00S
TULLAHOMA      SUNNY     77  64  65 VRB3      30.01F
WINCHESTER     SUNNY     79  63  57 CALM      30.00S
MCMINNVILLE    SUNNY     77  64  65 E5        30.02R
COLUMBIA       SUNNY    N/A N/A N/A CALM      29.98S
SHELBYVILLE    SUNNY     77  64  65 E3        30.01S
$$

TNZ017-018-042-046-047-311500-
NORTHEAST TENNESSEE

CITY           SKY/WX    TMP DP  RH WIND       PRES   REMARKS
TRI CITIES     PTSUNNY   72  64  76 CALM      30.04S
$$

TNZ012-013-036-069-073-074-311500-
CENTRAL EAST TENNESSEE

CITY           SKY/WX    TMP DP  RH WIND       PRES   REMARKS
KNOXVILLE      CLOUDY    74  65  73 VRB3      30.01R
OAK RIDGE      CLOUDY    76  63  64 E5        30.03R
GATLINBURG     SUNNY     73  61  64 CALM      30.01S
$$

TNZ083-085-099-311500-
SOUTHEAST TENNESSEE

CITY           SKY/WX    TMP DP  RH WIND       PRES   REMARKS
CHATTANOOGA    PTSUNNY   78  63  59 N3        30.00S
$$

SKY/WX REPORTED AS FAIR MEANS FEW OR NO CLOUDS BELOW
12 THOUSAND FEET.





USA.gov is the U.S. government's official web portal to all federal, state and local government web resources and services.